[[{"header":{"parameterUnit":"m.s-1","parameterCategory":1,"la1":30.2991,"la2":30.254,"lo1":-89.0895,"lo2":-89.0444,"dx":0.0017,"dy":0.0017,"nx":28,"ny":28,"refTime":"2022-11-05T15:00:00:Z","depth":0,"parameterNumber":2,"parameterNumberName":"U-component_of_WINDS"},"data":[0,0,0,0,0,0,0,0,0,0,0,0,0,0,0,0,0,0,0,0,0,0,0,0,0,0,0,0,0,0,0,0,0,0,0,0,0,0,0,0,0,0,0,0,0,0,0,0,0,0,0,0,0,0,0,0,0,0,-2.8116,-2.8118,0,-2.8249,-2.825,-2.8252,-2.829,-2.829,-2.8289,-2.8288,-2.8425,-2.8429,-2.8433,0,0,0,0,0,0,0,0,0,0,0,0,0,-2.7899,-2.7902,-2.8116,-2.8118,-2.812,-2.8249,-2.825,-2.8252,-2.8291,-2.829,-2.8289,-2.8288,-2.8423,-2.8429,-2.8434,0,0,0,0,0,0,0,0,0,0,0,0,0,-2.8008,-2.7904,-2.8116,-2.8154,-2.8159,-2.8248,-2.825,-2.8253,-2.8291,-2.829,-2.8289,-2.8288,-2.8422,-2.8428,-2.8434,-2.8495,0,0,-2.8454,-2.8457,0,0,0,0,0,0,0,0,-2.8002,-2.8016,-2.8147,-2.8152,-2.8157,-2.8252,-2.8224,-2.8334,-2.8291,-2.8241,-2.8288,-2.8287,-2.8368,-2.8379,-2.8406,-2.8502,-2.8508,-2.8455,-2.8459,-2.8461,-2.8463,0,0,0,0,0,0,0,-2.7994,-2.8011,-2.8169,-2.8149,-2.8155,-2.8166,-2.818,-2.8245,-2.8309,-2.8245,-2.8248,-2.8263,-2.8371,-2.84,-2.841,-2.851,-2.8454,-2.846,-2.8464,-2.8467,-2.8662,-2.8664,0,0,0,0,0,0,-2.798,-2.8004,-2.8165,-2.8173,-2.8075,-2.817,-2.8186,-2.8223,-2.8308,-2.832,-2.8264,-2.8265,-2.8389,-2.8402,-2.8415,-2.8491,-2.8461,-2.8467,-2.8471,-2.8661,-2.8663,-2.8664,0,0,0,0,0,0,-2.7975,-2.7994,-2.8159,-2.8089,-2.8111,-2.8175,-2.8216,-2.8226,-2.8255,-2.8323,-2.8334,-2.8282,-2.8389,-2.8406,-2.8475,-2.8497,-2.847,-2.8476,-2.866,-2.8662,-2.8663,-2.8645,0,0,0,0,0,0,-2.7969,-2.7992,-2.8015,-2.809,-2.8115,-2.8217,-2.8217,-2.8229,-2.8266,-2.8268,-2.8342,-2.8354,-2.839,-2.8465,-2.8481,-2.8505,-2.8481,-2.8658,-2.866,-2.8663,-2.8644,-2.8646,-2.8648,0,0,0,0,0,-2.7961,-2.8005,-2.8016,-2.8035,-2.8145,-2.8218,-2.8232,-2.8272,-2.8267,-2.8292,-2.8335,-2.8351,-2.8492,-2.8472,-2.8491,-2.8516,-2.8657,-2.866,-2.8663,-2.8643,-2.8646,-2.8648,0,0,0,0,0,0,-2.7931,-2.8015,-2.8029,-2.8098,-2.815,-2.8224,-2.8256,-2.8274,-2.8329,-2.8329,-2.8377,-2.8393,-2.8459,-2.8495,-2.8471,-2.858,-2.8575,-2.8582,-2.8554,-2.8557,-2.8559,-2.8548,-2.8486,0,0,0,0,0,-2.7933,-2.7985,-2.8056,-2.811,-2.8136,-2.8191,-2.8224,-2.8251,-2.8307,-2.833,-2.8378,-2.8433,-2.8489,-2.8526,-2.8581,-2.865,-2.8667,-2.8678,-2.868,-2.8681,-2.8686,-2.8725,-2.873,-2.8674,-2.8674,-2.8674,0,0,-2.7937,-2.7989,-2.8019,-2.8105,-2.8149,-2.8202,-2.8209,-2.8265,-2.8305,-2.8338,-2.8406,-2.8444,-2.8508,-2.8578,-2.8611,-2.861,-2.8706,-2.8685,-2.8685,-2.869,-2.8729,-2.8734,-2.8739,-2.8676,-2.8676,-2.8675,0,0,-2.797,-2.8015,-2.8065,-2.8109,-2.8175,-2.8212,-2.8224,-2.8296,-2.8322,-2.8391,-2.8418,-2.8466,-2.8563,-2.8607,-2.8642,-2.8694,-2.8711,-2.8712,-2.8722,-2.8759,-2.8764,-2.8768,-2.8786,-2.8792,-2.8717,-2.8717,-2.8717,0,-2.7966,-2.8046,-2.8089,-2.8143,-2.818,-2.8214,-2.8265,-2.8306,-2.8387,-2.8412,-2.841,-2.8532,-2.8578,-2.8658,-2.8671,-2.8699,-2.8714,-2.8702,-2.876,-2.8764,-2.8769,-2.8786,-2.8793,-2.8716,-2.8716,-2.8716,-2.8716,0,-2.8038,-2.8093,-2.8126,-2.8203,-2.8245,-2.8297,-2.8348,-2.8385,-2.8409,-2.8446,-2.8517,-2.8573,-2.8641,-2.8662,-2.8686,-2.8746,-2.8743,-2.875,-2.8745,-2.8773,-2.879,-2.8797,-2.8715,-2.8715,-2.8716,-2.8716,0,0,-2.8055,-2.8156,-2.8167,-2.8202,-2.8279,-2.8322,-2.8377,-2.8443,-2.8474,-2.8529,-2.8576,-2.8658,-2.8665,-2.8705,-2.8734,-2.8767,-2.8804,-2.877,-2.8772,-2.8774,-2.8874,-2.8868,-2.8875,-2.8817,-2.8818,-2.882,-2.8869,0,-2.8097,-2.8195,-2.8235,-2.8315,-2.8366,-2.8399,-2.8447,-2.8499,-2.8536,-2.8586,-2.8627,-2.8684,-2.8689,-2.8713,-2.8748,-2.8792,-2.8825,-2.879,-2.8861,-2.8863,-2.8842,-2.8884,-2.8877,-2.892,-2.8876,-2.8877,-2.8878,0,-2.8159,-2.8214,-2.8298,-2.8369,-2.8392,-2.8434,-2.8498,-2.8545,-2.8606,-2.863,-2.8675,-2.8703,-2.8762,-2.8755,-2.8837,-2.8812,-2.8845,-2.8871,-2.8874,-2.8881,-2.8871,-2.8891,-2.8935,-2.8941,-2.8889,-2.8888,-2.8887,0,-2.8162,-2.8258,-2.832,-2.835,-2.8434,-2.8462,-2.8499,-2.8558,-2.8595,-2.8652,-2.8677,-2.874,-2.8774,-2.8823,-2.8867,-2.8857,-2.8945,-2.8941,-2.8967,-2.8966,-2.8982,-2.898,-2.9031,-2.9005,-2.9005,-2.9005,-2.9005,0,-2.8204,-2.8254,-2.8323,-2.8361,-2.8418,-2.8465,-2.8521,-2.856,-2.8612,-2.8659,-2.8693,-2.8736,-2.8793,-2.8844,-2.8879,-2.8942,-2.8957,-2.8979,-2.8988,-2.8975,-2.8972,-2.8996,-2.8993,-2.9007,-2.9006,-2.9006,-2.9006,0,-2.8216,-2.8264,-2.8334,-2.8408,-2.8428,-2.8466,-2.853,-2.8569,-2.8608,-2.8667,-2.8684,-2.8745,-2.8807,-2.8857,-2.8938,-2.8961,-2.9027,-2.9037,-2.9006,-2.901,-2.9033,-2.9029,-2.9099,-2.9111,-2.9077,-2.9078,-2.9078,0,-2.8238,-2.8278,-2.8356,-2.8389,-2.8425,-2.8479,-2.8517,-2.8566,-2.8604,-2.8677,-2.8707,-2.8771,-2.8825,-2.8923,-2.8975,-2.9037,-2.9048,-2.9069,-2.9058,-2.9044,-2.9048,-2.9044,-2.9048,-2.9069,-2.9069,-2.9069,-2.9069,0,-2.8274,-2.8296,-2.8349,-2.8412,-2.8456,-2.8508,-2.856,-2.8586,-2.8644,-2.8686,-2.8749,-2.8791,-2.8874,-2.8938,-2.9006,-2.9044,-2.9067,-2.9073,-2.9082,-2.9069,-2.9049,-2.9059,-2.9008,-2.9071,-2.907,-2.907,-2.907,-2.907,-2.8292,-2.8328,-2.8388,-2.8447,-2.8491,-2.854,-2.858,-2.8624,-2.8677,-2.8748,-2.8774,-2.8839,-2.89,-2.8993,-2.9033,-2.9085,-2.9086,-2.91,-2.9103,-2.9105,-2.9103,-2.9042,-2.9098,-2.9098,-2.9098,-2.9098,-2.9098,0,-2.8328,-2.8368,-2.8422,-2.8494,-2.854,-2.8558,-2.8617,-2.8655,-2.8711,-2.8766,-2.8818,-2.8891,-2.8953,-2.9011,-2.9076,-2.9107,-2.9119,-2.9122,-2.912,-2.9128,-2.9098,-2.9083,-2.9111,-2.9111,-2.9111,-2.9111,-2.9111,-2.9111,-2.8352,-2.8414,-2.8443,-2.8528,-2.8569,-2.8633,-2.8665,-2.871,-2.8754,-2.8833,-2.8885,-2.8922,-2.8978,-2.9048,-2.9106,-2.9121,-2.9143,-2.9143,-2.9161,-2.9132,-2.913,-2.9128,-2.9114,-2.9148,-2.9148,-2.9187,-2.9187,-2.9187]},{"header":{"parameterUnit":"m.s-1","parameterCategory":1,"la1":30.2991,"la2":30.254,"lo1":-89.0895,"lo2":-89.0444,"dx":0.0017,"dy":0.0017,"nx":28,"ny":28,"refTime":"2022-11-05T15:00:00:Z","depth":0,"parameterNumber":3,"parameterNumberName":"V-component_of_WINDS"},"data":[0,0,0,0,0,0,0,0,0,0,0,0,0,0,0,0,0,0,0,0,0,0,0,0,0,0,0,0,0,0,0,0,0,0,0,0,0,0,0,0,0,0,0,0,0,0,0,0,0,0,0,0,0,0,0,0,0,0,4.1034,4.1035,0,4.1107,4.1108,4.1108,4.1095,4.1093,4.1092,4.1091,4.1162,4.1165,4.1168,0,0,0,0,0,0,0,0,0,0,0,0,0,4.0882,4.0885,4.1034,4.1035,4.1036,4.1107,4.1108,4.1109,4.1095,4.1093,4.1092,4.109,4.1161,4.1165,4.1168,0,0,0,0,0,0,0,0,0,0,0,0,0,4.095,4.0886,4.1034,4.1038,4.1039,4.1107,4.1108,4.1109,4.1095,4.1093,4.1091,4.1089,4.116,4.1164,4.1169,4.1237,0,0,4.1183,4.1185,0,0,0,0,0,0,0,0,4.0947,4.0956,4.1036,4.1038,4.1039,4.109,4.108,4.1152,4.1096,4.1074,4.1091,4.1088,4.1139,4.1146,4.1163,4.124,4.1243,4.1183,4.1186,4.1188,4.119,0,0,0,0,0,0,0,4.0942,4.0953,4.1063,4.1037,4.1039,4.1035,4.1043,4.1094,4.1116,4.1075,4.1075,4.1084,4.114,4.1159,4.1165,4.1244,4.1183,4.1187,4.119,4.1192,4.1382,4.1384,0,0,0,0,0,0,4.0936,4.0949,4.1061,4.1065,4.0987,4.1039,4.1048,4.1075,4.1116,4.112,4.1085,4.1083,4.1152,4.1159,4.1167,4.1251,4.1188,4.1193,4.1195,4.138,4.1382,4.1385,0,0,0,0,0,0,4.0933,4.0946,4.1058,4.1007,4.1021,4.1044,4.1075,4.1078,4.1097,4.1123,4.1127,4.1101,4.1151,4.1161,4.122,4.1253,4.1195,4.1199,4.1377,4.1381,4.1384,4.1418,0,0,0,0,0,0,4.0929,4.0945,4.0972,4.1008,4.1024,4.111,4.1077,4.1081,4.1105,4.1103,4.1139,4.1143,4.115,4.1213,4.1225,4.1259,4.1203,4.1374,4.1379,4.1383,4.1414,4.1422,4.1429,0,0,0,0,0,4.0923,4.0977,4.0973,4.0986,4.1057,4.1112,4.1121,4.1129,4.1108,4.1135,4.1152,4.1142,4.1248,4.122,4.1232,4.1268,4.1372,4.1377,4.1382,4.1411,4.1421,4.1429,0,0,0,0,0,0,4.0943,4.0982,4.0978,4.1045,4.1075,4.1109,4.1143,4.1138,4.1174,4.117,4.1178,4.1186,4.1247,4.1263,4.1231,4.1337,4.1307,4.1315,4.1324,4.1334,4.1341,4.1336,4.1206,0,0,0,0,0,4.0955,4.0997,4.1029,4.1085,4.1101,4.1119,4.1143,4.1147,4.1178,4.1191,4.1212,4.1242,4.1283,4.1309,4.1347,4.1416,4.1424,4.1447,4.1454,4.1461,4.1468,4.1507,4.1518,4.1402,4.1401,4.1401,0,0,4.0981,4.1007,4.1033,4.109,4.1114,4.1157,4.113,4.1176,4.1209,4.1197,4.1256,4.1273,4.1307,4.1372,4.1402,4.1387,4.1502,4.1467,4.1472,4.1475,4.1514,4.1525,4.1535,4.1405,4.1404,4.1404,0,0,4.105,4.1074,4.1124,4.1149,4.1187,4.1199,4.1211,4.1247,4.1258,4.1317,4.131,4.1348,4.1416,4.1442,4.1464,4.1544,4.1537,4.1556,4.1596,4.1635,4.1644,4.1652,4.1682,4.1693,4.1563,4.1563,4.1563,0,4.1077,4.1142,4.115,4.1199,4.1224,4.1217,4.1269,4.1292,4.134,4.1358,4.1341,4.1429,4.1451,4.1523,4.1543,4.156,4.1575,4.1553,4.1642,4.165,4.1658,4.1687,4.1698,4.1565,4.1565,4.1565,4.1565,0,4.1174,4.122,4.1256,4.1304,4.1334,4.1383,4.1399,4.1427,4.1429,4.1443,4.1503,4.153,4.1575,4.1592,4.1592,4.1665,4.1655,4.164,4.1611,4.1671,4.1699,4.171,4.1569,4.1568,4.1567,4.1566,0,0,4.1258,4.1311,4.1324,4.1347,4.1388,4.1423,4.1473,4.1518,4.1543,4.1576,4.1618,4.1677,4.1665,4.1689,4.1693,4.1727,4.1791,4.1708,4.1709,4.1724,4.1874,4.1887,4.1899,4.1786,4.1788,4.179,4.1872,0,4.1332,4.142,4.143,4.1509,4.1552,4.1547,4.159,4.162,4.1635,4.1673,4.1688,4.1731,4.171,4.1726,4.1759,4.1776,4.1822,4.177,4.1826,4.1828,4.182,4.1914,4.1926,4.2002,4.1883,4.1885,4.1886,0,4.143,4.1469,4.1552,4.159,4.1608,4.1647,4.169,4.1726,4.176,4.1769,4.1798,4.1797,4.1849,4.1816,4.1887,4.1852,4.1876,4.1888,4.1891,4.1898,4.1862,4.1924,4.2026,4.2039,4.1903,4.1901,4.19,0,4.1485,4.1557,4.1617,4.1636,4.1681,4.1709,4.1728,4.176,4.1788,4.1825,4.1843,4.1885,4.1908,4.1941,4.1952,4.1927,4.2023,4.1991,4.2032,4.2032,4.2054,4.2052,4.2163,4.2066,4.2066,4.2065,4.2065,0,4.1568,4.162,4.1643,4.168,4.1738,4.1748,4.1805,4.1823,4.1853,4.1893,4.189,4.1928,4.194,4.198,4.1989,4.2048,4.2057,4.2066,4.2068,4.2068,4.2067,4.2084,4.2079,4.2068,4.2068,4.2067,4.2067,0,4.164,4.1657,4.1723,4.176,4.177,4.1812,4.1844,4.188,4.1894,4.1945,4.1958,4.1981,4.2028,4.2042,4.2098,4.2104,4.2174,4.217,4.2163,4.2163,4.2204,4.2201,4.2331,4.2349,4.2238,4.2239,4.224,0,4.1693,4.1733,4.1775,4.1803,4.1824,4.1868,4.1897,4.1908,4.1937,4.198,4.2011,4.2058,4.2097,4.2172,4.2193,4.2237,4.2235,4.2278,4.2242,4.2241,4.2238,4.2237,4.2242,4.2285,4.2286,4.2287,4.2288,0,4.1785,4.1792,4.1833,4.1879,4.1913,4.1948,4.1983,4.2005,4.2021,4.2055,4.2104,4.2134,4.2192,4.224,4.2284,4.2304,4.2299,4.2299,4.2311,4.2312,4.2307,4.2312,4.2183,4.2296,4.2295,4.2295,4.2294,4.2294,4.185,4.1887,4.1923,4.197,4.1997,4.2029,4.2066,4.2085,4.2127,4.2176,4.218,4.2234,4.2268,4.2328,4.235,4.2392,4.2379,4.2396,4.2401,4.2406,4.241,4.2299,4.2399,4.2399,4.2399,4.2399,4.2399,0,4.1945,4.1968,4.2011,4.206,4.2097,4.209,4.2128,4.2159,4.2207,4.2239,4.2278,4.2335,4.2381,4.2406,4.2452,4.2481,4.2481,4.2493,4.2492,4.2497,4.2417,4.2403,4.2493,4.2493,4.2493,4.2493,4.2493,4.2493,4.1998,4.206,4.2071,4.2147,4.2169,4.2223,4.2246,4.2276,4.2302,4.2367,4.2406,4.2422,4.2452,4.2501,4.2543,4.2549,4.2567,4.2582,4.2587,4.2512,4.2502,4.2493,4.248,4.2585,4.2585,4.2663,4.2664,4.2665]}]]